Showing default

IRIDIUM 138, 43071

Orbit data source: Space-Track

IRIDIUM 138, 43071 is a payload satellite owned by Iridium (US) in LEO that was launched on Sat, 23 Dec 2017 UTC via an FALCON 9 launch vehicle from the Air Force Western Test Range (AFWTR). Payloads include a variety of satellites, spacecraft, and rockets equipped with specific instruments for various scientific and technological missions. These include communications satellites like Starlink; space stations such as the ISS; scientific satellites like the Hubble; Earth observation satellites from companies like Planet Labs, Umbra, and HawkEye 360; GPS; miniature CubeSats for education and research; and military/defense satellites.

Loading next visibility...
IRIDIUM 138 details
Identifier
43071, 2017-083B
Orbit
LEO
Last TLE update7 hours ago
Origin
Flag of USIridium (US)
ManufacturerOATK SSG Gilbert
MissionOperational Commercial Communications
Bus & MotorELITEBUS, Unknown motor
Mass860 kg wet, 700 kg dry
Launch date (UTC)
2017-12-23 (7 years ago)
Launch vehicle
FALCON 9
Launch site
Air Force Western Test Range (AFWTR)
Object type
Payload
Rocket body
Debris
Shape & HBRTrap Box + 2 Pan, 9.4 m
Radar Cross Section14.423 m², Large (>1 m²)

Expand to show TLE details & history

TLE from 7 hours ago
0 IRIDIUM 138
1 43071U 17083B   24361.26165613  .00000016  00000-0 -14349-5 0  9994
2 43071  86.3982 186.5216 0002021  70.5832 289.5583 14.34217648367031
Epoch: 2024-12-26T06:16Z
Definitive object data (Epoch: 2024-12-26T06:16:47.089Z)
Latitude0.00006°
Longitude-2.91818°
Altitude780.234 km
Speed7.464 km/s
True Right ascension12h 26m 05s
True Declination0° 00' 00"
Sunlit
Object was in daylight at TLE epoch
Visualization TLE readout
Latitude65.57528°
Longitude169.03148°
Altitude788.048 km
Speed7.466 km/s
Apparent Right ascension00h 30m 12s
Apparent Declination17° 17' 31"
Sunlit
Object is in daylight
Visualization observer readout
Local Sidereal Time12:52:11
Azimuth6.225° NNE
Elevation-32.563°
Doppler factor1
Orbital elements
Apogee altitude776.078 km
Perigee altitude773.186 km
Semi-major axis7,152.769 km
Eccentricity0.0002021
Inclination86.3982°
RAAN186.5216°
Arg. of periapsis70.5832°
True anomaly289.53648°
Mean anomaly289.5583°
Eccentric anomaly289.54739°
Mean motion3.58783 °/min
BSTAR-0.0000014349
Orbital period100.34 mins
Loading maneuver chart data...
Loading historical data...
Loading historical data...
Loading historical data...
Loading historical data...
Loading historical data...
Loading historical data...
Loading historical data...

IRIDIUM 138 Visibility forecast

Observer location: undefined°, undefined

Span
Click to sort rows by Start time (UTC) header in descending order
Start Az.
Max El. time (UTC)
Max El. Az.
Max El.
End time (UTC)
End Az.
6 mins2024-12-26 23:37:29.662Z42.055° NE2024-12-26 23:39:29.662Z69.101° E18.699°2024-12-26 23:43:29.662Z121.567° SE
8 mins2024-12-27 01:17:29.662Z336.835° NNW2024-12-27 01:20:29.662Z287.242° WNW34.377°2024-12-27 01:25:29.662Z203.962° SW
7 mins2024-12-27 12:33:29.662Z143.447° SSE2024-12-27 12:36:29.662Z81.635° E33.628°2024-12-27 12:40:29.662Z20.112° NNE
|